sat.trackr.live / text

‹ back to catalog

STARLINK-1043

NORAD 44748 · 2019-074AM

PAYLOAD ACTIVE UNKNOWN

§ Identity

Operator
Country
US
Launch date
2019-11-11
Launch site
AFETR
Launch vehicle
Mass (kg)
RCS (m²)

Purposes: comms

External: N2YO · Heavens-Above · Gunter

§ Orbital elements

Epoch: 2026-09-19T21:29:28.851648Z

Period
91.51 min
Inclination
53.0461°
Eccentricity
0.0001981
Mean motion
15.73684468 rev/d
Perigee alt
347.0 km
Apogee alt
349.7 km
Semi-major
6,726.5 km
B*
3.4122e-4
RAAN
323.9980°
Arg perigee
10.4151°
Mean anomaly
349.6908°
Rev number
37,902

§ Raw data

STARLINK-10431 44748U 19074AM  26262.89547282  .00048562  00000+0  34122-3 0  99902 44748  53.0461 323.9980 0001981  10.4151 349.6908 15.73684468379025

JSON: /api/v1/satellites/44748 · /tle

For live sub-satellite position, see the globe view (requires WebGL).

§ Visibility from observer

Set your observer location to see the next 7 days of passes ≥ 10°. The values pass through the URL so the page stays shareable.

No JS? Fill the form by hand. The geolocation button needs JavaScript.